Home   Weather   Košice   Past weeks

Flag for Slovakia Past Weather in Košice, Slovakia — Yesterday and Last 2 Weeks

Now
39 °F

Mostly cloudy.


Feels Like: 39 °F
Forecast: 39 / 51 °F
Wind: 2 mph from North

Location: Kosice - Barca

Current Time: Feb 28, 2017 at 4:35:22 am

Latest Report: Feb 28, 2017 at 3:30 am


Visibility: N/A

Pressure: 29.77 "Hg

Humidity: 87%

Dew Point: 36 °F

Location of KošiceLocation

Past Weather in Košice — Graph

°F

Košice Temperature Yesterday

Maximum temperature yesterday: 52 °F (at 1:00 pm)
Minimum temperature yesterday: 28 °F (at 6:30 am)
Average temperature yesterday: 40 °F

High & Low Weather Summary for the Past Weeks

 TemperatureHumidityPressure
High55 °F (Feb 23, 1:30 pm)100% (Feb 13, 4:00 am)30.63 "Hg (Feb 13, 4:00 am)
Low21 °F (Feb 13, 3:00 am)31% (Feb 25, 12:30 pm)29.50 "Hg (Feb 24, 2:30 am)
Average33 °F86%30.13 "Hg
* Reported Feb 13 3:00 am — Feb 28 3:00 am, Košice, Weather by CustomWeather, © 2017

Note: Actual official high and low records may vary slightly from our data, if they occured in-between our weather recording intervals... More about our weather records

Advertising

Košice Weather History for the Previous 24 Hours

Scroll right to see more
 ConditionsComfort  
Time TempWeatherWind HumidityBarometerVisibility
3:00 am
Tue, Feb 28
39 °FMostly cloudy.1 mph87%29.77 "HgN/A
2:30 am41 °FOvercast.3 mph81%29.77 "HgN/A
2:00 am41 °FOvercast.1 mph81%29.80 "HgN/A
1:30 am41 °FOvercast.2 mph81%29.80 "HgN/A
1:00 am41 °FOvercast.1 mph81%29.83 "HgN/A
12:30 am43 °FPassing clouds.2 mph76%29.83 "HgN/A
12:00 am43 °FOvercast.1 mph76%29.83 "HgN/A
11:30 pm
Mon, Feb 27
43 °FPassing clouds.1 mph76%29.86 "HgN/A
11:00 pm43 °FPassing clouds.1 mph71%29.86 "HgN/A
10:30 pm43 °FPassing clouds.2 mph71%29.86 "HgN/A
10:00 pm41 °FPassing clouds.1 mph81%29.89 "HgN/A
9:30 pm41 °FPassing clouds.5 mph76%29.89 "HgN/A
9:00 pm43 °FPassing clouds.2 mph71%29.89 "HgN/A
8:30 pm43 °FPassing clouds.1 mph71%29.92 "HgN/A
8:00 pm45 °FPassing clouds.1 mph66%29.92 "HgN/A
7:30 pm43 °FPassing clouds.6 mph71%29.92 "HgN/A
7:00 pm43 °FPassing clouds.6 mph71%29.92 "HgN/A
6:30 pm45 °FClear.5 mph66%29.92 "Hg10 mi
6:00 pm45 °FPassing clouds.6 mph66%29.95 "HgN/A
5:30 pm45 °FPassing clouds.9 mph66%29.95 "HgN/A
5:00 pm46 °FSunny.8 mph62%29.95 "Hg10 mi
4:30 pm48 °FSunny.8 mph58%29.95 "Hg10 mi
4:00 pm48 °FSunny.7 mph54%29.95 "Hg10 mi
3:30 pm50 °FSunny.10 mph50%29.95 "Hg10 mi
3:00 pm52 °FSunny.10 mph47%29.98 "Hg10 mi
2:30 pm52 °FSunny.10 mph41%29.98 "Hg10 mi
2:00 pm52 °FSunny.13 mph44%29.98 "Hg10 mi
1:30 pm52 °FPassing clouds.12 mph44%29.98 "HgN/A
1:00 pm52 °FSunny.10 mph44%30.01 "Hg10 mi
12:30 pm50 °FSunny.12 mph43%30.01 "Hg10 mi
12:00 pm50 °FSunny.9 mph47%30.04 "Hg10 mi
11:30 am48 °FPassing clouds.9 mph43%30.04 "HgN/A
11:00 am46 °FPassing clouds.5 mph46%30.04 "HgN/A
10:17 am45 °FPassing clouds.6 mph53%30.07 "HgN/A
9:30 am39 °FSunny.3 mph65%30.07 "Hg10 mi
9:00 am37 °FSunny.3 mph70%30.07 "Hg10 mi
8:30 am37 °FSunny.1 mph60%30.07 "Hg10 mi
8:00 am34 °FSunny.1 mph75%30.07 "Hg10 mi
7:30 am32 °FSunny.1 mph75%30.07 "Hg10 mi
7:00 am28 °FSunny.No wind80%30.07 "Hg10 mi
6:30 am28 °FSunny.2 mph74%30.07 "Hg10 mi
6:00 am30 °FPassing clouds.5 mph75%30.07 "HgN/A
5:30 am30 °FClear.2 mph75%30.07 "Hg10 mi
5:00 am30 °FClear.3 mph75%30.07 "Hg10 mi
4:30 am30 °FClear.5 mph75%30.07 "Hg10 mi
4:00 am30 °FClear.6 mph75%30.04 "Hg10 mi
Weather by CustomWeather, © 2017

See weather overviewHow to use our weather pages